Time,TemperatureF,DewpointF,PressureIn,WindDirection,WindDirectionDegrees,WindSpeedMPH,WindSpeedGustMPH,Humidity,HourlyPrecipIn,Conditions,Clouds,dailyrainin,SolarRadiationWatts/m^2,SoftwareType,DateUTC
2013-05-25 00:01:00,45.1,36.6,30.82,NW,323,0.0,0.0,72,0.00,,,0.00,0.00,VWS V14.00,2013-05-25 06:01:00,
2013-05-25 00:06:00,45.0,36.9,30.82,NW,323,0.0,2.0,73,0.00,,,0.00,0.00,VWS V14.00,2013-05-25 06:06:00,
2013-05-25 00:11:00,44.5,36.7,30.81,NW,323,0.0,0.0,74,0.00,,,0.00,0.00,VWS V14.00,2013-05-25 06:11:00,
2013-05-25 00:16:00,44.2,36.8,30.81,NW,322,0.0,0.0,75,0.00,,,0.00,0.00,VWS V14.00,2013-05-25 06:16:00,
2013-05-25 00:21:00,44.0,36.6,30.81,NW,323,0.0,0.0,75,0.00,,,0.00,0.00,VWS V14.00,2013-05-25 06:21:00,
2013-05-25 00:26:00,43.8,36.4,30.81,NW,323,0.0,2.0,75,0.00,,,0.00,0.00,VWS V14.00,2013-05-25 06:26:00,
2013-05-25 00:31:00,43.5,35.8,30.81,NW,323,0.0,2.0,74,0.00,,,0.00,0.00,VWS V14.00,2013-05-25 06:31:00,
2013-05-25 00:36:00,43.3,35.6,30.81,NW,322,0.0,2.0,74,0.00,,,0.00,0.00,VWS V14.00,2013-05-25 06:36:00,
2013-05-25 00:41:00,43.2,35.5,30.82,NW,323,0.0,0.0,74,0.00,,,0.00,0.00,VWS V14.00,2013-05-25 06:41:00,
2013-05-25 00:46:00,43.1,35.7,30.81,NW,323,0.0,0.0,75,0.00,,,0.00,0.00,VWS V14.00,2013-05-25 06:46:00,
2013-05-25 00:51:00,43.0,35.3,30.82,NW,323,0.0,0.0,74,0.00,,,0.00,0.00,VWS V14.00,2013-05-25 06:51:00,
2013-05-25 00:56:00,42.9,35.5,30.82,NW,322,0.0,0.0,75,0.00,,,0.00,0.00,VWS V14.00,2013-05-25 06:56:00,
2013-05-25 01:01:00,42.9,35.2,30.82,NW,322,0.0,0.0,74,0.00,,,0.00,0.00,VWS V14.00,2013-05-25 07:01:00,
2013-05-25 01:06:00,42.7,35.0,30.82,NW,323,0.0,1.0,74,0.00,,,0.00,0.00,VWS V14.00,2013-05-25 07:06:00,
2013-05-25 01:11:00,42.6,35.6,30.81,NW,323,0.0,0.0,76,0.00,,,0.00,0.00,VWS V14.00,2013-05-25 07:11:00,
2013-05-25 01:16:00,42.4,35.7,30.81,NW,322,0.0,0.0,77,0.00,,,0.00,0.00,VWS V14.00,2013-05-25 07:16:00,
2013-05-25 01:21:00,42.2,35.8,30.80,NW,323,0.0,0.0,78,0.00,,,0.00,0.00,VWS V14.00,2013-05-25 07:21:00,
2013-05-25 01:26:00,41.9,35.5,30.80,NW,323,0.0,1.0,78,0.00,,,0.00,0.00,VWS V14.00,2013-05-25 07:26:00,
2013-05-25 01:31:00,41.6,35.3,30.80,NW,323,0.0,1.0,78,0.00,,,0.00,0.00,VWS V14.00,2013-05-25 07:31:00,
2013-05-25 01:36:00,41.4,35.4,30.82,NW,323,0.0,1.0,79,0.00,,,0.00,0.00,VWS V14.00,2013-05-25 07:36:00,
2013-05-25 01:41:00,41.2,35.2,30.82,NW,323,0.0,0.0,79,0.00,,,0.00,0.00,VWS V14.00,2013-05-25 07:41:00,
2013-05-25 01:46:00,41.0,35.0,30.81,NW,323,0.0,0.0,79,0.00,,,0.00,0.00,VWS V14.00,2013-05-25 07:46:00,
2013-05-25 01:51:00,40.8,35.1,30.82,NW,322,0.0,0.0,80,0.00,,,0.00,0.00,VWS V14.00,2013-05-25 07:51:00,
2013-05-25 01:56:00,40.5,34.5,30.82,NW,322,0.0,2.0,79,0.00,,,0.00,0.00,VWS V14.00,2013-05-25 07:56:00,
2013-05-25 02:01:00,40.3,34.6,30.81,NW,323,0.0,2.0,80,0.00,,,0.00,0.00,VWS V14.00,2013-05-25 08:01:00,
2013-05-25 02:06:00,40.2,34.5,30.81,NW,323,0.0,2.0,80,0.00,,,0.00,0.00,VWS V14.00,2013-05-25 08:06:00,
2013-05-25 02:11:00,40.2,34.5,30.81,NW,323,0.0,1.0,80,0.00,,,0.00,0.00,VWS V14.00,2013-05-25 08:11:00,
2013-05-25 02:16:00,40.0,35.0,30.82,NW,323,0.0,1.0,82,0.00,,,0.00,0.00,VWS V14.00,2013-05-25 08:16:00,
2013-05-25 02:21:00,39.9,34.9,30.82,NW,323,0.0,1.0,82,0.00,,,0.00,0.00,VWS V14.00,2013-05-25 08:21:00,
2013-05-25 02:26:00,39.7,34.7,30.81,NW,323,1.0,2.0,82,0.00,,,0.00,0.00,VWS V14.00,2013-05-25 08:26:00,
2013-05-25 02:31:00,39.5,34.8,30.81,NW,323,0.0,2.0,83,0.00,,,0.00,0.00,VWS V14.00,2013-05-25 08:31:00,
2013-05-25 02:36:00,39.3,34.6,30.81,NW,322,0.0,2.0,83,0.00,,,0.00,0.00,VWS V14.00,2013-05-25 08:36:00,
2013-05-25 02:41:00,39.2,34.5,30.81,NW,322,0.0,0.0,83,0.00,,,0.00,0.00,VWS V14.00,2013-05-25 08:41:00,
2013-05-25 02:46:00,39.1,34.7,30.81,NW,323,0.0,0.0,84,0.00,,,0.00,0.00,VWS V14.00,2013-05-25 08:46:00,
2013-05-25 02:51:00,39.0,34.3,30.81,NW,322,0.0,0.0,83,0.00,,,0.00,0.00,VWS V14.00,2013-05-25 08:51:00,
2013-05-25 02:56:00,39.0,34.6,30.81,NW,322,0.0,0.0,84,0.00,,,0.00,0.00,VWS V14.00,2013-05-25 08:56:00,
2013-05-25 03:01:00,38.9,34.2,30.81,NW,323,0.0,3.0,83,0.00,,,0.00,0.00,VWS V14.00,2013-05-25 09:01:00,
2013-05-25 03:06:00,38.8,34.4,30.81,NW,323,0.0,3.0,84,0.00,,,0.00,0.00,VWS V14.00,2013-05-25 09:06:00,
2013-05-25 03:11:00,38.7,34.3,30.83,NW,323,0.0,0.0,84,0.00,,,0.00,0.00,VWS V14.00,2013-05-25 09:11:00,
2013-05-25 03:16:00,38.6,34.5,30.83,NW,322,0.0,0.0,85,0.00,,,0.00,0.00,VWS V14.00,2013-05-25 09:16:00,
2013-05-25 03:21:00,38.5,34.1,30.83,NW,323,0.0,0.0,84,0.00,,,0.00,0.00,VWS V14.00,2013-05-25 09:21:00,
2013-05-25 03:26:00,38.3,33.9,30.83,NW,322,0.0,0.0,84,0.00,,,0.00,0.00,VWS V14.00,2013-05-25 09:26:00,
2013-05-25 03:31:00,38.2,33.8,30.83,NW,322,0.0,0.0,84,0.00,,,0.00,0.00,VWS V14.00,2013-05-25 09:31:00,
2013-05-25 03:36:00,38.1,33.7,30.83,NW,323,0.0,0.0,84,0.00,,,0.00,0.00,VWS V14.00,2013-05-25 09:36:00,
2013-05-25 03:41:00,38.1,33.7,30.83,NW,323,0.0,0.0,84,0.00,,,0.00,0.00,VWS V14.00,2013-05-25 09:41:00,
2013-05-25 03:46:00,38.1,34.0,30.83,NW,323,0.0,0.0,85,0.00,,,0.00,0.00,VWS V14.00,2013-05-25 09:46:00,
2013-05-25 03:51:00,38.1,34.3,30.83,NW,323,0.0,0.0,86,0.00,,,0.00,0.00,VWS V14.00,2013-05-25 09:51:00,
2013-05-25 03:56:00,38.1,34.3,30.83,NW,323,0.0,1.0,86,0.00,,,0.00,0.00,VWS V14.00,2013-05-25 09:56:00,
2013-05-25 04:01:00,38.1,34.3,30.83,NW,323,0.0,1.0,86,0.00,,,0.00,0.00,VWS V14.00,2013-05-25 10:01:00,
2013-05-25 04:06:00,38.1,34.0,30.83,NW,323,0.0,1.0,85,0.00,,,0.00,0.00,VWS V14.00,2013-05-25 10:06:00,
2013-05-25 04:11:00,38.1,34.0,30.86,NW,322,0.0,0.0,85,0.00,,,0.00,0.00,VWS V14.00,2013-05-25 10:11:00,
2013-05-25 04:16:00,38.1,34.3,30.86,NW,323,0.0,0.0,86,0.00,,,0.00,0.00,VWS V14.00,2013-05-25 10:16:00,
2013-05-25 04:21:00,38.0,34.2,30.87,NW,323,0.0,0.0,86,0.00,,,0.00,0.00,VWS V14.00,2013-05-25 10:21:00,
2013-05-25 04:26:00,38.0,34.2,30.86,NW,323,0.0,0.0,86,0.00,,,0.00,0.00,VWS V14.00,2013-05-25 10:26:00,
2013-05-25 04:31:00,37.9,34.1,30.86,NW,322,0.0,0.0,86,0.00,,,0.00,0.00,VWS V14.00,2013-05-25 10:31:00,
2013-05-25 04:36:00,37.8,34.0,30.87,NW,323,0.0,0.0,86,0.00,,,0.00,0.00,VWS V14.00,2013-05-25 10:36:00,
2013-05-25 04:41:00,37.7,33.9,30.87,NW,323,0.0,0.0,86,0.00,,,0.00,0.00,VWS V14.00,2013-05-25 10:41:00,
2013-05-25 04:46:00,37.6,33.8,30.87,NW,323,0.0,0.0,86,0.00,,,0.00,0.00,VWS V14.00,2013-05-25 10:46:00,
2013-05-25 04:51:00,37.4,33.3,30.88,NW,323,0.0,0.0,85,0.00,,,0.00,0.00,VWS V14.00,2013-05-25 10:51:00,
2013-05-25 04:56:00,37.2,33.1,30.88,NW,323,0.0,0.0,85,0.00,,,0.00,0.00,VWS V14.00,2013-05-25 10:56:00,
2013-05-25 05:01:00,37.1,33.3,30.88,NW,323,0.0,0.0,86,0.00,,,0.00,0.00,VWS V14.00,2013-05-25 11:01:00,
2013-05-25 05:06:00,37.0,33.2,30.88,NW,323,0.0,0.0,86,0.00,,,0.00,0.00,VWS V14.00,2013-05-25 11:06:00,
2013-05-25 05:11:00,37.0,33.2,30.88,NW,322,0.0,0.0,86,0.00,,,0.00,0.00,VWS V14.00,2013-05-25 11:11:00,
2013-05-25 05:16:00,36.9,33.1,30.88,NW,323,0.0,0.0,86,0.00,,,0.00,0.00,VWS V14.00,2013-05-25 11:16:00,
2013-05-25 05:21:00,37.0,33.2,30.88,NW,323,0.0,0.0,86,0.00,,,0.00,0.00,VWS V14.00,2013-05-25 11:21:00,
2013-05-25 05:26:00,37.0,33.2,30.88,NW,323,0.0,0.0,86,0.00,,,0.00,0.00,VWS V14.00,2013-05-25 11:26:00,
2013-05-25 05:31:00,37.1,33.3,30.88,NW,322,0.0,0.0,86,0.00,,,0.00,0.00,VWS V14.00,2013-05-25 11:31:00,
2013-05-25 05:36:00,37.1,33.3,30.88,NW,323,0.0,0.0,86,0.00,,,0.00,0.00,VWS V14.00,2013-05-25 11:36:00,
2013-05-25 05:41:00,37.1,33.3,30.88,NW,323,0.0,1.0,86,0.00,,,0.00,0.00,VWS V14.00,2013-05-25 11:41:00,
2013-05-25 05:46:00,37.1,33.0,30.88,NW,322,0.0,1.0,85,0.00,,,0.00,0.00,VWS V14.00,2013-05-25 11:46:00,
2013-05-25 05:51:00,37.0,32.9,30.88,NW,322,0.0,1.0,85,0.00,,,0.00,0.00,VWS V14.00,2013-05-25 11:51:00,
2013-05-25 05:56:00,37.0,32.9,30.88,NW,323,1.0,3.0,85,0.00,,,0.00,5.00,VWS V14.00,2013-05-25 11:56:00,
2013-05-25 06:01:00,37.0,32.9,30.88,NW,323,0.0,3.0,85,0.00,,,0.00,7.00,VWS V14.00,2013-05-25 12:01:00,
2013-05-25 06:06:00,37.0,32.9,30.88,NW,323,0.0,3.0,85,0.00,,,0.00,11.00,VWS V14.00,2013-05-25 12:06:00,
2013-05-25 06:11:00,36.9,32.8,30.87,NW,323,0.0,0.0,85,0.00,,,0.00,14.00,VWS V14.00,2013-05-25 12:11:00,
2013-05-25 06:16:00,36.8,32.7,30.87,NW,323,0.0,0.0,85,0.00,,,0.00,19.00,VWS V14.00,2013-05-25 12:16:00,
2013-05-25 06:21:00,36.7,32.6,30.87,NW,322,0.0,1.0,85,0.00,,,0.00,23.00,VWS V14.00,2013-05-25 12:21:00,
2013-05-25 06:26:00,36.6,32.8,30.87,NW,322,0.0,0.0,86,0.00,,,0.00,23.00,VWS V14.00,2013-05-25 12:26:00,
2013-05-25 06:31:00,36.5,32.7,30.88,NW,323,0.0,0.0,86,0.00,,,0.00,25.00,VWS V14.00,2013-05-25 12:31:00,
2013-05-25 06:36:00,36.4,32.9,30.87,NW,323,0.0,0.0,87,0.00,,,0.00,28.00,VWS V14.00,2013-05-25 12:36:00,
2013-05-25 06:41:00,36.4,32.9,30.87,NW,323,0.0,0.0,87,0.00,,,0.00,37.00,VWS V14.00,2013-05-25 12:41:00,
2013-05-25 06:46:00,36.3,32.8,30.88,NW,322,0.0,0.0,87,0.00,,,0.00,46.00,VWS V14.00,2013-05-25 12:46:00,
2013-05-25 06:51:00,36.3,32.8,30.88,NW,323,0.0,0.0,87,0.00,,,0.00,53.00,VWS V14.00,2013-05-25 12:51:00,
2013-05-25 06:56:00,36.3,32.8,30.88,NW,323,0.0,0.0,87,0.00,,,0.00,53.00,VWS V14.00,2013-05-25 12:56:00,
2013-05-25 07:01:00,36.3,33.1,30.88,NW,323,0.0,0.0,88,0.00,,,0.00,62.00,VWS V14.00,2013-05-25 13:01:00,
2013-05-25 07:06:00,36.4,33.5,30.88,NW,322,0.0,1.0,89,0.00,,,0.00,65.00,VWS V14.00,2013-05-25 13:06:00,
2013-05-25 07:11:00,36.5,33.6,30.89,NW,323,0.0,2.0,89,0.00,,,0.00,65.00,VWS V14.00,2013-05-25 13:11:00,
2013-05-25 07:16:00,36.5,33.6,30.89,NW,323,0.0,2.0,89,0.00,,,0.00,83.00,VWS V14.00,2013-05-25 13:16:00,
2013-05-25 07:21:00,36.6,33.7,30.89,NW,322,0.0,2.0,89,0.00,,,0.00,93.00,VWS V14.00,2013-05-25 13:21:00,
2013-05-25 07:26:00,36.6,33.7,30.89,NW,322,0.0,1.0,89,0.00,,,0.00,90.00,VWS V14.00,2013-05-25 13:26:00,
2013-05-25 07:31:00,36.7,33.8,30.89,NW,323,0.0,1.0,89,0.00,,,0.00,93.00,VWS V14.00,2013-05-25 13:31:00,
2013-05-25 07:36:00,36.8,33.9,30.89,NW,323,0.0,1.0,89,0.00,,,0.00,98.00,VWS V14.00,2013-05-25 13:36:00,
2013-05-25 07:41:00,36.9,34.0,30.89,NW,323,0.0,0.0,89,0.00,,,0.00,109.00,VWS V14.00,2013-05-25 13:41:00,
2013-05-25 07:46:00,37.0,34.1,30.89,NW,323,0.0,0.0,89,0.00,,,0.00,111.00,VWS V14.00,2013-05-25 13:46:00,
2013-05-25 07:51:00,37.1,34.2,30.89,NW,323,0.0,0.0,89,0.00,,,0.00,113.00,VWS V14.00,2013-05-25 13:51:00,
2013-05-25 07:56:00,37.3,34.4,30.89,NW,322,0.0,0.0,89,0.00,,,0.00,121.00,VWS V14.00,2013-05-25 13:56:00,
2013-05-25 08:01:00,37.5,34.6,30.89,NW,323,0.0,0.0,89,0.00,,,0.00,149.00,VWS V14.00,2013-05-25 14:01:00,
2013-05-25 08:06:00,37.7,34.8,30.89,NW,323,0.0,0.0,89,0.00,,,0.00,146.00,VWS V14.00,2013-05-25 14:06:00,
2013-05-25 08:11:00,38.0,35.0,30.91,NW,323,0.0,0.0,89,0.00,,,0.00,144.00,VWS V14.00,2013-05-25 14:11:00,
2013-05-25 08:16:00,38.2,35.2,30.91,NW,323,2.0,2.0,89,0.00,,,0.00,142.00,VWS V14.00,2013-05-25 14:16:00,
2013-05-25 08:21:00,38.4,35.2,30.91,NW,323,0.0,2.0,88,0.00,,,0.00,153.00,VWS V14.00,2013-05-25 14:21:00,
2013-05-25 08:26:00,38.5,35.0,30.91,NW,323,0.0,1.0,87,0.00,,,0.00,156.00,VWS V14.00,2013-05-25 14:26:00,
2013-05-25 08:31:00,38.7,35.2,30.91,NW,322,0.0,1.0,87,0.00,,,0.00,156.00,VWS V14.00,2013-05-25 14:31:00,
2013-05-25 08:36:00,38.9,35.4,30.91,NW,323,0.0,1.0,87,0.00,,,0.00,141.00,VWS V14.00,2013-05-25 14:36:00,
2013-05-25 08:41:00,39.1,35.3,30.91,NW,323,0.0,0.0,86,0.00,,,0.00,155.00,VWS V14.00,2013-05-25 14:41:00,
2013-05-25 08:46:00,39.3,35.5,30.91,NW,323,0.0,0.0,86,0.00,,,0.00,169.00,VWS V14.00,2013-05-25 14:46:00,
2013-05-25 08:51:00,39.6,35.5,30.89,NW,322,0.0,2.0,85,0.00,,,0.00,172.00,VWS V14.00,2013-05-25 14:51:00,
2013-05-25 08:56:00,39.8,35.7,30.89,NW,323,0.0,0.0,85,0.00,,,0.00,179.00,VWS V14.00,2013-05-25 14:56:00,
2013-05-25 09:01:00,40.0,35.6,30.89,NW,323,0.0,1.0,84,0.00,,,0.00,197.00,VWS V14.00,2013-05-25 15:01:00,
2013-05-25 09:06:00,40.3,35.9,30.89,NW,322,0.0,1.0,84,0.00,,,0.00,218.00,VWS V14.00,2013-05-25 15:06:00,
2013-05-25 09:11:00,40.6,36.2,30.89,NW,323,0.0,3.0,84,0.00,,,0.00,197.00,VWS V14.00,2013-05-25 15:11:00,
2013-05-25 09:16:00,40.8,36.3,30.89,NW,323,0.0,3.0,84,0.00,,,0.00,207.00,VWS V14.00,2013-05-25 15:16:00,
2013-05-25 09:21:00,41.1,35.7,30.89,NW,322,0.0,3.0,81,0.00,,,0.00,236.00,VWS V14.00,2013-05-25 15:21:00,
2013-05-25 09:26:00,41.4,35.4,30.89,NW,323,0.0,3.0,79,0.00,,,0.00,274.00,VWS V14.00,2013-05-25 15:26:00,
2013-05-25 09:31:00,41.7,36.0,30.88,NW,323,1.0,3.0,80,0.00,,,0.00,341.00,VWS V14.00,2013-05-25 15:31:00,
2013-05-25 09:36:00,42.2,36.5,30.88,NW,322,0.0,3.0,80,0.00,,,0.00,401.00,VWS V14.00,2013-05-25 15:36:00,
2013-05-25 09:41:00,42.7,36.0,30.88,NW,323,0.0,3.0,77,0.00,,,0.00,383.00,VWS V14.00,2013-05-25 15:41:00,
2013-05-25 09:46:00,43.2,36.5,30.89,NW,323,0.0,3.0,77,0.00,,,0.00,427.00,VWS V14.00,2013-05-25 15:46:00,
2013-05-25 09:51:00,43.7,36.6,30.87,NW,322,0.0,3.0,76,0.00,,,0.00,464.00,VWS V14.00,2013-05-25 15:51:00,
2013-05-25 09:56:00,44.3,37.2,30.87,NW,323,3.0,5.0,76,0.00,,,0.00,417.00,VWS V14.00,2013-05-25 15:56:00,
2013-05-25 10:01:00,44.8,36.7,30.87,NW,324,0.0,6.0,73,0.00,,,0.00,482.00,VWS V14.00,2013-05-25 16:01:00,
2013-05-25 10:06:00,45.3,36.8,30.86,NW,324,0.0,6.0,72,0.00,,,0.00,497.00,VWS V14.00,2013-05-25 16:06:00,
2013-05-25 10:11:00,45.7,35.8,30.86,NW,324,1.0,5.0,68,0.00,,,0.00,343.00,VWS V14.00,2013-05-25 16:11:00,
2013-05-25 10:16:00,45.9,37.0,30.86,NW,323,0.0,5.0,71,0.00,,,0.00,422.00,VWS V14.00,2013-05-25 16:16:00,
2013-05-25 10:21:00,46.1,36.5,30.86,NNW,327,1.0,6.0,69,0.00,,,0.00,322.00,VWS V14.00,2013-05-25 16:21:00,
2013-05-25 10:26:00,46.3,37.1,30.86,WNW,300,0.0,4.0,70,0.00,,,0.00,515.00,VWS V14.00,2013-05-25 16:26:00,
2013-05-25 10:31:00,46.6,37.0,30.85,WNW,300,0.0,4.0,69,0.00,,,0.00,469.00,VWS V14.00,2013-05-25 16:31:00,
2013-05-25 10:36:00,46.9,36.2,30.84,NNW,336,3.0,5.0,66,0.00,,,0.00,464.00,VWS V14.00,2013-05-25 16:36:00,
2013-05-25 10:41:00,46.9,35.8,30.84,NNW,336,1.0,4.0,65,0.00,,,0.00,543.00,VWS V14.00,2013-05-25 16:41:00,
2013-05-25 10:46:00,47.1,36.3,30.84,NNW,336,0.0,4.0,66,0.00,,,0.00,436.00,VWS V14.00,2013-05-25 16:46:00,
2013-05-25 10:51:00,47.4,37.0,30.84,NNW,336,0.0,4.0,67,0.00,,,0.00,489.00,VWS V14.00,2013-05-25 16:51:00,
2013-05-25 10:56:00,47.8,37.4,30.84,NNW,337,3.0,6.0,67,0.00,,,0.00,715.00,VWS V14.00,2013-05-25 16:56:00,
2013-05-25 11:01:00,48.7,39.0,30.83,NNW,334,2.0,6.0,69,0.00,,,0.00,642.00,VWS V14.00,2013-05-25 17:01:00,
2013-05-25 11:06:00,49.4,37.8,30.83,NNW,335,0.0,6.0,64,0.00,,,0.00,594.00,VWS V14.00,2013-05-25 17:06:00,
2013-05-25 11:11:00,49.7,37.2,30.83,NNW,336,0.0,7.0,62,0.00,,,0.00,580.00,VWS V14.00,2013-05-25 17:11:00,
2013-05-25 11:16:00,50.0,37.9,30.83,NNW,336,2.0,7.0,63,0.00,,,0.00,466.00,VWS V14.00,2013-05-25 17:16:00,
2013-05-25 11:21:00,50.2,38.1,30.83,NNW,336,0.0,7.0,63,0.00,,,0.00,459.00,VWS V14.00,2013-05-25 17:21:00,
2013-05-25 11:26:00,50.5,37.2,30.83,NNW,336,0.0,4.0,60,0.00,,,0.00,510.00,VWS V14.00,2013-05-25 17:26:00,
2013-05-25 11:31:00,50.9,38.0,30.82,NNW,336,1.0,4.0,61,0.00,,,0.00,842.00,VWS V14.00,2013-05-25 17:31:00,
2013-05-25 11:36:00,51.5,38.5,30.82,NNW,336,0.0,4.0,61,0.00,,,0.00,809.00,VWS V14.00,2013-05-25 17:36:00,
2013-05-25 11:41:00,52.1,38.7,30.82,NNW,336,1.0,6.0,60,0.00,,,0.00,838.00,VWS V14.00,2013-05-25 17:41:00,
2013-05-25 11:46:00,52.6,38.7,30.80,NNW,336,1.0,6.0,59,0.00,,,0.00,863.00,VWS V14.00,2013-05-25 17:46:00,
2013-05-25 11:51:00,53.3,38.9,30.81,NNW,336,0.0,6.0,58,0.00,,,0.00,875.00,VWS V14.00,2013-05-25 17:51:00,
2013-05-25 11:56:00,53.9,39.5,30.80,NNW,338,1.0,6.0,58,0.00,,,0.00,851.00,VWS V14.00,2013-05-25 17:56:00,
2013-05-25 12:01:00,54.1,37.8,30.80,NNW,338,0.0,6.0,54,0.00,,,0.00,584.00,VWS V14.00,2013-05-25 18:01:00,
2013-05-25 12:06:00,54.1,39.2,30.80,NNW,337,3.0,6.0,57,0.00,,,0.00,780.00,VWS V14.00,2013-05-25 18:06:00,
2013-05-25 12:11:00,54.5,38.2,30.80,NNW,337,0.0,5.0,54,0.00,,,0.00,738.00,VWS V14.00,2013-05-25 18:11:00,
2013-05-25 12:16:00,54.7,39.8,30.80,North,360,5.0,6.0,57,0.00,,,0.00,671.00,VWS V14.00,2013-05-25 18:16:00,
2013-05-25 12:21:00,55.1,38.8,30.80,NNW,342,0.0,6.0,54,0.00,,,0.00,916.00,VWS V14.00,2013-05-25 18:21:00,
2013-05-25 12:26:00,55.4,38.1,30.80,NW,304,0.0,5.0,52,0.00,,,0.00,944.00,VWS V14.00,2013-05-25 18:26:00,
2013-05-25 12:31:00,55.9,38.5,30.79,NNW,336,0.0,5.0,52,0.00,,,0.00,1004.00,VWS V14.00,2013-05-25 18:31:00,
2013-05-25 12:36:00,56.6,40.2,30.78,NNE,28,0.0,0.0,54,0.00,,,0.00,1002.00,VWS V14.00,2013-05-25 18:36:00,
2013-05-25 12:41:00,57.0,39.1,30.78,North,349,4.0,6.0,51,0.00,,,0.00,499.00,VWS V14.00,2013-05-25 18:41:00,
2013-05-25 12:46:00,56.8,39.9,30.78,NNW,333,0.0,8.0,53,0.00,,,0.00,496.00,VWS V14.00,2013-05-25 18:46:00,
2013-05-25 12:51:00,56.6,39.7,30.78,NW,319,2.0,8.0,53,0.00,,,0.00,494.00,VWS V14.00,2013-05-25 18:51:00,
2013-05-25 12:56:00,56.5,39.6,30.78,WNW,302,0.0,5.0,53,0.00,,,0.00,510.00,VWS V14.00,2013-05-25 18:56:00,
2013-05-25 13:01:00,56.7,41.7,30.77,WNW,303,3.0,5.0,57,0.00,,,0.00,504.00,VWS V14.00,2013-05-25 19:01:00,
2013-05-25 13:06:00,56.7,39.8,30.78,NW,309,2.0,5.0,53,0.00,,,0.00,557.00,VWS V14.00,2013-05-25 19:06:00,
2013-05-25 13:11:00,56.8,39.9,30.79,NNW,336,1.0,5.0,53,0.00,,,0.00,461.00,VWS V14.00,2013-05-25 19:11:00,
2013-05-25 13:16:00,56.7,39.8,30.79,NNW,336,0.0,5.0,53,0.00,,,0.00,570.00,VWS V14.00,2013-05-25 19:16:00,
2013-05-25 13:21:00,56.8,38.9,30.79,NNW,338,5.0,7.0,51,0.00,,,0.00,824.00,VWS V14.00,2013-05-25 19:21:00,
2013-05-25 13:26:00,56.8,40.8,30.79,NNW,333,3.0,6.0,55,0.00,,,0.00,638.00,VWS V14.00,2013-05-25 19:26:00,
2013-05-25 13:31:00,57.3,40.8,30.79,NNW,333,0.0,6.0,54,0.00,,,0.00,541.00,VWS V14.00,2013-05-25 19:31:00,
2013-05-25 13:36:00,57.5,40.5,30.78,NNW,333,0.0,6.0,53,0.00,,,0.00,573.00,VWS V14.00,2013-05-25 19:36:00,
2013-05-25 13:41:00,57.9,40.9,30.78,NNW,333,0.0,4.0,53,0.00,,,0.00,1016.00,VWS V14.00,2013-05-25 19:41:00,
2013-05-25 13:46:00,59.0,40.9,30.78,NNW,333,0.0,4.0,51,0.00,,,0.00,990.00,VWS V14.00,2013-05-25 19:46:00,
2013-05-25 13:51:00,59.3,41.2,30.77,NNW,344,0.0,7.0,51,0.00,,,0.00,788.00,VWS V14.00,2013-05-25 19:51:00,
2013-05-25 13:56:00,59.8,39.5,30.77,North,355,0.0,6.0,47,0.00,,,0.00,935.00,VWS V14.00,2013-05-25 19:56:00,
2013-05-25 14:01:00,59.7,41.0,30.76,North,355,1.0,6.0,50,0.00,,,0.00,288.00,VWS V14.00,2013-05-25 20:01:00,
2013-05-25 14:06:00,59.5,40.3,30.77,North,355,0.0,6.0,49,0.00,,,0.00,359.00,VWS V14.00,2013-05-25 20:06:00,
2013-05-25 14:11:00,59.3,40.7,30.78,North,355,0.0,0.0,50,0.00,,,0.00,323.00,VWS V14.00,2013-05-25 20:11:00,
2013-05-25 14:16:00,59.0,39.4,30.78,North,355,4.0,5.0,48,0.00,,,0.00,301.00,VWS V14.00,2013-05-25 20:16:00,
2013-05-25 14:21:00,59.0,38.8,30.77,North,355,0.0,5.0,47,0.00,,,0.00,281.00,VWS V14.00,2013-05-25 20:21:00,
2013-05-25 14:26:00,58.6,40.0,30.77,North,355,0.0,5.0,50,0.00,,,0.00,322.00,VWS V14.00,2013-05-25 20:26:00,
2013-05-25 14:31:00,58.6,39.0,30.78,North,355,0.0,5.0,48,0.00,,,0.00,313.00,VWS V14.00,2013-05-25 20:31:00,
2013-05-25 14:36:00,58.8,39.2,30.78,North,355,0.0,5.0,48,0.00,,,0.00,459.00,VWS V14.00,2013-05-25 20:36:00,
2013-05-25 14:41:00,59.0,41.9,30.77,North,355,5.0,7.0,53,0.00,,,0.00,448.00,VWS V14.00,2013-05-25 20:41:00,
2013-05-25 14:46:00,59.7,38.9,30.77,North,355,0.0,7.0,46,0.00,,,0.00,478.00,VWS V14.00,2013-05-25 20:46:00,
2013-05-25 14:51:00,60.3,41.6,30.77,North,355,0.0,7.0,50,0.00,,,0.00,329.00,VWS V14.00,2013-05-25 20:51:00,
2013-05-25 14:56:00,61.6,43.3,30.76,North,355,0.0,3.0,51,0.00,,,0.00,986.00,VWS V14.00,2013-05-25 20:56:00,
2013-05-25 15:01:00,62.2,39.5,30.76,North,350,5.0,5.0,43,0.00,,,0.00,891.00,VWS V14.00,2013-05-25 21:01:00,
2013-05-25 15:06:00,62.8,41.7,30.75,North,355,3.0,6.0,46,0.00,,,0.00,912.00,VWS V14.00,2013-05-25 21:06:00,
2013-05-25 15:11:00,62.8,40.0,30.77,North,355,0.0,4.0,43,0.00,,,0.00,316.00,VWS V14.00,2013-05-25 21:11:00,
2013-05-25 15:16:00,62.7,41.6,30.76,NW,326,0.0,6.0,46,0.00,,,0.00,812.00,VWS V14.00,2013-05-25 21:16:00,
2013-05-25 15:21:00,62.7,39.9,30.76,NW,326,1.0,1.0,43,0.00,,,0.00,654.00,VWS V14.00,2013-05-25 21:21:00,
2013-05-25 15:26:00,62.9,40.7,30.76,NW,325,0.0,3.0,44,0.00,,,0.00,916.00,VWS V14.00,2013-05-25 21:26:00,
2013-05-25 15:31:00,63.0,40.2,30.76,North,351,0.0,7.0,43,0.00,,,0.00,752.00,VWS V14.00,2013-05-25 21:31:00,
2013-05-25 15:36:00,63.0,40.2,30.76,North,351,0.0,7.0,43,0.00,,,0.00,744.00,VWS V14.00,2013-05-25 21:36:00,
2013-05-25 15:41:00,63.1,40.9,30.76,NNW,345,5.0,7.0,44,0.00,,,0.00,436.00,VWS V14.00,2013-05-25 21:41:00,
2013-05-25 15:46:00,63.0,39.6,30.76,North,355,1.0,8.0,42,0.00,,,0.00,253.00,VWS V14.00,2013-05-25 21:46:00,
2013-05-25 15:51:00,62.7,39.9,30.76,North,355,0.0,0.0,43,0.00,,,0.00,469.00,VWS V14.00,2013-05-25 21:51:00,
2013-05-25 15:56:00,63.1,40.9,30.76,WSW,252,0.0,6.0,44,0.00,,,0.00,895.00,VWS V14.00,2013-05-25 21:56:00,
2013-05-25 16:01:00,63.4,43.4,30.76,SSW,197,0.0,6.0,48,0.00,,,0.00,923.00,VWS V14.00,2013-05-25 22:01:00,
2013-05-25 16:06:00,63.5,40.0,30.76,SSW,196,3.0,3.0,42,0.00,,,0.00,392.00,VWS V14.00,2013-05-25 22:06:00,
2013-05-25 16:11:00,63.6,41.3,30.76,North,350,1.0,5.0,44,0.00,,,0.00,714.00,VWS V14.00,2013-05-25 22:11:00,
2013-05-25 16:16:00,63.5,40.0,30.76,North,355,0.0,5.0,42,0.00,,,0.00,373.00,VWS V14.00,2013-05-25 22:16:00,
2013-05-25 16:21:00,63.4,40.5,30.76,North,355,1.0,2.0,43,0.00,,,0.00,343.00,VWS V14.00,2013-05-25 22:21:00,
2013-05-25 16:26:00,64.0,42.8,30.76,North,355,0.0,3.0,46,0.00,,,0.00,255.00,VWS V14.00,2013-05-25 22:26:00,
2013-05-25 16:31:00,64.0,39.8,30.76,North,355,2.0,3.0,41,0.00,,,0.00,404.00,VWS V14.00,2013-05-25 22:31:00,
2013-05-25 16:36:00,63.9,42.2,30.76,West,261,0.0,4.0,45,0.00,,,0.00,1004.00,VWS V14.00,2013-05-25 22:36:00,
2013-05-25 16:41:00,64.5,40.9,30.75,SE,144,1.0,7.0,42,0.00,,,0.00,780.00,VWS V14.00,2013-05-25 22:41:00,
2013-05-25 16:46:00,65.0,40.1,30.75,SSE,166,2.0,7.0,40,0.00,,,0.00,729.00,VWS V14.00,2013-05-25 22:46:00,
2013-05-25 16:51:00,64.8,41.8,30.75,SSE,167,0.0,0.0,43,0.00,,,0.00,710.00,VWS V14.00,2013-05-25 22:51:00,
2013-05-25 16:56:00,65.0,41.4,30.74,SSE,159,2.0,7.0,42,0.00,,,0.00,694.00,VWS V14.00,2013-05-25 22:56:00,
2013-05-25 17:01:00,64.8,40.6,30.75,SSE,165,0.0,7.0,41,0.00,,,0.00,684.00,VWS V14.00,2013-05-25 23:01:00,
2013-05-25 17:06:00,64.7,40.5,30.75,SSE,157,0.0,0.0,41,0.00,,,0.00,654.00,VWS V14.00,2013-05-25 23:06:00,
2013-05-25 17:11:00,64.7,39.2,30.75,SSE,153,5.0,9.0,39,0.00,,,0.00,139.00,VWS V14.00,2013-05-25 23:11:00,
2013-05-25 17:16:00,64.5,41.5,30.74,SE,140,0.0,9.0,43,0.00,,,0.00,174.00,VWS V14.00,2013-05-25 23:16:00,
2013-05-25 17:21:00,64.2,41.8,30.75,SE,140,0.0,9.0,44,0.00,,,0.00,679.00,VWS V14.00,2013-05-25 23:21:00,
2013-05-25 17:26:00,64.5,40.9,30.74,SE,140,0.0,3.0,42,0.00,,,0.00,624.00,VWS V14.00,2013-05-25 23:26:00,
2013-05-25 17:31:00,64.7,41.1,30.74,SE,140,0.0,3.0,42,0.00,,,0.00,575.00,VWS V14.00,2013-05-25 23:31:00,
2013-05-25 17:36:00,65.2,41.5,30.74,North,360,1.0,2.0,42,0.00,,,0.00,573.00,VWS V14.00,2013-05-25 23:36:00,
2013-05-25 17:41:00,65.5,43.6,30.74,NNW,338,2.0,6.0,45,0.00,,,0.00,571.00,VWS V14.00,2013-05-25 23:41:00,
2013-05-25 17:46:00,65.6,41.9,30.74,SSE,163,0.0,6.0,42,0.00,,,0.00,527.00,VWS V14.00,2013-05-25 23:46:00,
2013-05-25 17:51:00,65.8,42.7,30.74,SE,142,0.0,6.0,43,0.00,,,0.00,517.00,VWS V14.00,2013-05-25 23:51:00,
2013-05-25 17:56:00,66.0,41.7,30.74,NNE,18,2.0,3.0,41,0.00,,,0.00,512.00,VWS V14.00,2013-05-25 23:56:00,
2013-05-25 18:01:00,66.1,41.1,30.74,NNW,347,0.0,6.0,40,0.00,,,0.00,510.00,VWS V14.00,2013-05-26 00:01:00,
2013-05-25 18:06:00,66.0,39.7,30.75,North,5,3.0,6.0,38,0.00,,,0.00,510.00,VWS V14.00,2013-05-26 00:06:00,
2013-05-25 18:11:00,66.0,39.0,30.75,North,5,0.0,7.0,37,0.00,,,0.00,515.00,VWS V14.00,2013-05-26 00:11:00,
2013-05-25 18:16:00,65.9,39.6,30.75,North,360,4.0,7.0,38,0.00,,,0.00,526.00,VWS V14.00,2013-05-26 00:16:00,
2013-05-25 18:21:00,65.8,40.8,30.74,NNW,333,5.0,5.0,40,0.00,,,0.00,545.00,VWS V14.00,2013-05-26 00:21:00,
2013-05-25 18:26:00,65.7,38.7,30.75,North,360,5.0,8.0,37,0.00,,,0.00,489.00,VWS V14.00,2013-05-26 00:26:00,
2013-05-25 18:31:00,65.5,40.6,30.75,North,355,5.0,8.0,40,0.00,,,0.00,471.00,VWS V14.00,2013-05-26 00:31:00,
2013-05-25 18:36:00,65.1,39.5,30.76,NNW,340,4.0,5.0,39,0.00,,,0.00,441.00,VWS V14.00,2013-05-26 00:36:00,
2013-05-25 18:41:00,64.7,38.5,30.76,North,355,4.0,7.0,38,0.00,,,0.00,396.00,VWS V14.00,2013-05-26 00:41:00,
2013-05-25 18:46:00,64.5,38.3,30.76,North,360,3.0,7.0,38,0.00,,,0.00,360.00,VWS V14.00,2013-05-26 00:46:00,
2013-05-25 18:51:00,64.5,38.3,30.76,North,360,2.0,2.0,38,0.00,,,0.00,346.00,VWS V14.00,2013-05-26 00:51:00,
2013-05-25 18:56:00,64.4,39.6,30.76,NNW,345,4.0,4.0,40,0.00,,,0.00,330.00,VWS V14.00,2013-05-26 00:56:00,
2013-05-25 19:01:00,64.3,38.8,30.76,NNW,342,0.0,5.0,39,0.00,,,0.00,65.00,VWS V14.00,2013-05-26 01:01:00,
2013-05-25 19:06:00,64.1,39.9,30.75,NNW,341,0.0,0.0,41,0.00,,,0.00,311.00,VWS V14.00,2013-05-26 01:06:00,
2013-05-25 19:11:00,64.0,41.1,30.74,NNW,341,0.0,4.0,43,0.00,,,0.00,323.00,VWS V14.00,2013-05-26 01:11:00,
2013-05-25 19:16:00,64.0,40.5,30.75,NNW,340,5.0,6.0,42,0.00,,,0.00,343.00,VWS V14.00,2013-05-26 01:16:00,
2013-05-25 19:21:00,64.0,39.8,30.75,NNW,342,4.0,4.0,41,0.00,,,0.00,322.00,VWS V14.00,2013-05-26 01:21:00,
2013-05-25 19:26:00,63.8,40.3,30.75,North,360,0.0,6.0,42,0.00,,,0.00,183.00,VWS V14.00,2013-05-26 01:26:00,
2013-05-25 19:31:00,63.5,38.8,30.75,North,360,0.0,6.0,40,0.00,,,0.00,186.00,VWS V14.00,2013-05-26 01:31:00,
2013-05-25 19:36:00,63.4,38.7,30.75,North,360,3.0,5.0,40,0.00,,,0.00,211.00,VWS V14.00,2013-05-26 01:36:00,
2013-05-25 19:41:00,63.3,39.2,30.76,North,355,0.0,7.0,41,0.00,,,0.00,186.00,VWS V14.00,2013-05-26 01:41:00,
2013-05-25 19:46:00,63.2,38.5,30.76,North,355,0.0,7.0,40,0.00,,,0.00,144.00,VWS V14.00,2013-05-26 01:46:00,
2013-05-25 19:51:00,63.0,40.2,30.76,North,355,3.0,3.0,43,0.00,,,0.00,169.00,VWS V14.00,2013-05-26 01:51:00,
2013-05-25 19:56:00,62.7,39.3,30.76,North,355,0.0,5.0,42,0.00,,,0.00,46.00,VWS V14.00,2013-05-26 01:56:00,
2013-05-25 20:01:00,62.3,41.8,30.76,North,355,4.0,5.0,47,0.00,,,0.00,46.00,VWS V14.00,2013-05-26 02:01:00,
2013-05-25 20:06:00,61.6,40.1,30.75,North,355,5.0,5.0,45,0.00,,,0.00,125.00,VWS V14.00,2013-05-26 02:06:00,
2013-05-25 20:11:00,60.7,40.4,30.76,North,355,4.0,6.0,47,0.00,,,0.00,107.00,VWS V14.00,2013-05-26 02:11:00,
2013-05-25 20:16:00,60.1,40.9,30.76,North,355,4.0,7.0,49,0.00,,,0.00,49.00,VWS V14.00,2013-05-26 02:16:00,
2013-05-25 20:21:00,59.3,40.7,30.77,North,355,7.0,7.0,50,0.00,,,0.00,49.00,VWS V14.00,2013-05-26 02:21:00,
2013-05-25 20:26:00,58.7,40.1,30.77,North,355,4.0,8.0,50,0.00,,,0.00,46.00,VWS V14.00,2013-05-26 02:26:00,
2013-05-25 20:31:00,58.1,39.1,30.77,North,360,2.0,10.0,49,0.00,,,0.00,28.00,VWS V14.00,2013-05-26 02:31:00,
2013-05-25 20:36:00,57.7,39.7,30.78,North,355,4.0,4.0,51,0.00,,,0.00,25.00,VWS V14.00,2013-05-26 02:36:00,
2013-05-25 20:41:00,57.2,39.2,30.79,North,350,0.0,6.0,51,0.00,,,0.00,23.00,VWS V14.00,2013-05-26 02:41:00,
2013-05-25 20:46:00,57.0,40.1,30.79,North,350,0.0,6.0,53,0.00,,,0.00,19.00,VWS V14.00,2013-05-26 02:46:00,
2013-05-25 20:51:00,56.6,38.7,30.80,North,350,0.0,1.0,51,0.00,,,0.00,12.00,VWS V14.00,2013-05-26 02:51:00,
2013-05-25 20:56:00,56.3,38.4,30.80,North,350,0.0,1.0,51,0.00,,,0.00,9.00,VWS V14.00,2013-05-26 02:56:00,
2013-05-25 21:01:00,56.0,38.2,30.80,North,350,0.0,4.0,51,0.00,,,0.00,5.00,VWS V14.00,2013-05-26 03:01:00,
2013-05-25 21:06:00,55.6,37.8,30.78,North,350,1.0,1.0,51,0.00,,,0.00,0.00,VWS V14.00,2013-05-26 03:06:00,
2013-05-25 21:11:00,55.3,37.5,30.77,North,350,1.0,3.0,51,0.00,,,0.00,0.00,VWS V14.00,2013-05-26 03:11:00,
2013-05-25 21:16:00,55.1,37.3,30.77,North,350,0.0,3.0,51,0.00,,,0.00,0.00,VWS V14.00,2013-05-26 03:16:00,
2013-05-25 21:21:00,54.9,36.6,30.77,North,350,0.0,0.0,50,0.00,,,0.00,0.00,VWS V14.00,2013-05-26 03:21:00,
2013-05-25 21:26:00,54.6,36.8,30.77,North,350,0.0,0.0,51,0.00,,,0.00,0.00,VWS V14.00,2013-05-26 03:26:00,
2013-05-25 21:31:00,54.3,37.5,30.78,North,350,0.0,0.0,53,0.00,,,0.00,0.00,VWS V14.00,2013-05-26 03:31:00,
2013-05-25 21:36:00,54.0,36.8,30.79,North,350,0.0,0.0,52,0.00,,,0.00,0.00,VWS V14.00,2013-05-26 03:36:00,
2013-05-25 21:41:00,53.7,37.0,30.79,North,350,0.0,1.0,53,0.00,,,0.00,0.00,VWS V14.00,2013-05-26 03:41:00,
2013-05-25 21:46:00,53.3,37.1,30.79,North,350,2.0,2.0,54,0.00,,,0.00,0.00,VWS V14.00,2013-05-26 03:46:00,
2013-05-25 21:51:00,52.8,37.5,30.79,North,350,0.0,0.0,56,0.00,,,0.00,0.00,VWS V14.00,2013-05-26 03:51:00,
2013-05-25 21:56:00,52.2,37.0,30.80,North,350,4.0,4.0,56,0.00,,,0.00,0.00,VWS V14.00,2013-05-26 03:56:00,
2013-05-25 22:01:00,51.7,36.5,30.81,North,350,3.0,5.0,56,0.00,,,0.00,0.00,VWS V14.00,2013-05-26 04:01:00,
2013-05-25 22:06:00,51.6,36.9,30.81,North,350,0.0,5.0,57,0.00,,,0.00,0.00,VWS V14.00,2013-05-26 04:06:00,
2013-05-25 22:11:00,51.4,37.1,30.79,North,350,0.0,4.0,58,0.00,,,0.00,0.00,VWS V14.00,2013-05-26 04:11:00,
2013-05-25 22:16:00,51.3,37.0,30.79,North,350,0.0,4.0,58,0.00,,,0.00,0.00,VWS V14.00,2013-05-26 04:16:00,
2013-05-25 22:21:00,51.1,37.3,30.79,North,350,0.0,4.0,59,0.00,,,0.00,0.00,VWS V14.00,2013-05-26 04:21:00,
2013-05-25 22:26:00,50.9,37.5,30.79,North,350,0.0,0.0,60,0.00,,,0.00,0.00,VWS V14.00,2013-05-26 04:26:00,
2013-05-25 22:31:00,50.7,37.8,30.80,North,350,0.0,0.0,61,0.00,,,0.00,0.00,VWS V14.00,2013-05-26 04:31:00,
2013-05-25 22:36:00,50.4,37.5,30.81,North,350,0.0,0.0,61,0.00,,,0.00,0.00,VWS V14.00,2013-05-26 04:36:00,
2013-05-25 22:41:00,50.2,38.1,30.81,North,350,0.0,0.0,63,0.00,,,0.00,0.00,VWS V14.00,2013-05-26 04:41:00,
2013-05-25 22:46:00,50.0,37.5,30.81,North,350,0.0,0.0,62,0.00,,,0.00,0.00,VWS V14.00,2013-05-26 04:46:00,
2013-05-25 22:51:00,50.0,37.9,30.81,North,350,0.0,0.0,63,0.00,,,0.00,0.00,VWS V14.00,2013-05-26 04:51:00,
2013-05-25 22:56:00,49.8,38.5,30.81,North,350,0.0,2.0,65,0.00,,,0.00,0.00,VWS V14.00,2013-05-26 04:56:00,
2013-05-25 23:01:00,49.5,38.6,30.81,North,350,0.0,2.0,66,0.00,,,0.00,0.00,VWS V14.00,2013-05-26 05:01:00,
2013-05-25 23:06:00,49.3,38.8,30.82,North,350,0.0,2.0,67,0.00,,,0.00,0.00,VWS V14.00,2013-05-26 05:06:00,
2013-05-25 23:11:00,49.2,38.7,30.80,North,350,0.0,0.0,67,0.00,,,0.00,0.00,VWS V14.00,2013-05-26 05:11:00,
2013-05-25 23:16:00,48.9,38.8,30.80,North,350,0.0,0.0,68,0.00,,,0.00,0.00,VWS V14.00,2013-05-26 05:16:00,
2013-05-25 23:21:00,48.7,37.9,30.80,North,350,0.0,0.0,66,0.00,,,0.00,0.00,VWS V14.00,2013-05-26 05:21:00,
2013-05-25 23:26:00,48.5,38.1,30.80,North,350,0.0,0.0,67,0.00,,,0.00,0.00,VWS V14.00,2013-05-26 05:26:00,
2013-05-25 23:31:00,48.3,37.9,30.80,North,350,0.0,0.0,67,0.00,,,0.00,0.00,VWS V14.00,2013-05-26 05:31:00,
2013-05-25 23:36:00,48.2,38.2,30.81,North,350,0.0,0.0,68,0.00,,,0.00,0.00,VWS V14.00,2013-05-26 05:36:00,
2013-05-25 23:41:00,48.1,37.7,30.81,North,350,0.0,0.0,67,0.00,,,0.00,0.00,VWS V14.00,2013-05-26 05:41:00,
2013-05-25 23:46:00,48.0,37.6,30.80,North,350,0.0,0.0,67,0.00,,,0.00,0.00,VWS V14.00,2013-05-26 05:46:00,
2013-05-25 23:51:00,47.9,37.1,30.81,North,350,0.0,0.0,66,0.00,,,0.00,0.00,VWS V14.00,2013-05-26 05:51:00,
2013-05-25 23:56:00,47.9,37.1,30.81,North,350,0.0,0.0,66,0.00,,,0.00,0.00,VWS V14.00,2013-05-26 05:56:00,